OpenBCM V1.13 (Linux)

Packet Radio Mailbox

DB0FHN

[JN59NK Nuernberg]

 Login: GUEST





  
I6KZR  > KEPLER   25.01.03 15:09l 317 Lines 15754 Bytes #999 (0) @ WW
BID : 20277_IK6WID
Read: DO1NRJ DB0FHN GUEST
Subj: 2L Keplerian Elements #024
Path: DB0FHN<DB0RGB<DB0FSG<DB0PV<DB0MRW<DB0ERF<DB0FBB<DB0GOS<ON0AR<ON0AR<
      IK1ZNW<IK6PYS<I6ZLO<IK6WID
Sent: 030125/1250Z @:IK6WID.#AP.IMAR.ITA.EU #:20277 [MONTE URANO]  FBB7.00i
From: I6KZR@IK6WID.#AP.IMAR.ITA.EU
To  : KEPLER@WW


OSCAR 7
1 07530U 74089B   03023.19588302 -.00000029  00000-0  10000-3 0  1445
2 07530 101.7676  71.2266 0012382 129.0021 231.2155 12.53563820289889
GOES 2
1 10061U 77048A   03019.51073537  .00000052  00000-0  00000+0 0   614
2 10061  14.1247  13.6744 0013638 197.1605 162.8376  0.99393429 38534
GOES 3
1 10953U 78062A   03023.00960495 -.00000093  00000-0  00000+0 0  9006
2 10953  13.3977  17.4347 0005008 338.2473  21.7713  1.00278391 43233
GOES 6
1 14050U 83041A   03016.14732176  .00000067  00000-0  10000-3 0  4146
2 14050  10.3570  35.6987 0003031 351.7582   8.3301  1.00292235130300
OSCAR 10
1 14129U 83058B   03022.69371816  .00000229  00000-0  10000-3 0  9121
2 14129  25.8918 168.7550 6038640 321.4060   7.9531  2.05867100119518
OSCAR 11 (UoSAT 2)
1 14781U 84021B   03024.56157821  .00001762  00000-0  25200-3 0   528
2 14781  98.1138 358.3015 0008454 296.5173  63.5168 14.77921520 12541
NOAA 10
1 16969U 86073A   03024.16710135  .00000198  00000-0  99375-4 0  6383
2 16969  98.7267  18.3335 0012658 157.2434 202.9308 14.27054124850280
GOES 7
1 17561U 87022A   03013.52827387  .00000116  00000-0  10000-3 0  8102
2 17561   7.5470  55.7264 0004064 288.6625 149.4031  1.00317770 41389
COSMOS 1861
1 18129U 87054A   03023.05160260  .00000062  00000-0  51645-4 0  1943
2 18129  82.9254 166.1618 0010911 307.7213  52.2951 13.72698070780874
EUTELSAT 1-F4 (ECS 4)
1 18351U 87078B   03016.60000000 -.00000134  00000-0  00000+0 0   285
2 18351   7.0610  58.7710 0010065 125.6900 263.2870  0.98688648 42356
NOAA 11
1 19531U 88089A   03024.11814102  .00000252  00000-0  15466-3 0  4763
2 19531  98.9054 105.5816 0010915 275.6994  84.2934 14.14525764739200
ASTRA 1A
1 19688U 88109B   03023.88994800  .00000037  00000-0  10000-3 0  5611
2 19688   1.3323  95.1158 0005173 204.4302 148.8117  1.00272356 31938
OSCAR 14 (UOSAT 3)
1 20437U 90005B   03023.63197604  .00000192  00000-0  88281-4 0  1483
2 20437  98.2741  68.4783 0009946 281.5669  78.4399 14.31229419678782
OSCAR 15 (UOSAT 4)
1 20438U 90005C   03022.65327727 +.00000149 +00000-0 +73487-4 0 07688
2 20438 098.2518 056.7890 0009310 297.9344 062.0897 14.30190771678318
OSCAR 16 (PACSAT)
1 20439U 90005D   03022.67254011  .00000209  00000-0  94524-4 0  8410
2 20439  98.3220  79.0918 0010345 292.1289  67.8801 14.31461083678680
OSCAR 17 (DOVE)
1 20440U 90005E   03022.94621491 +.00000259 +00000-0 +11249-3 0 07373
2 20440 098.3405 083.1849 0010573 290.6205 069.3841 14.31738409678792
OSCAR 18 (WEBERSAT)
1 20441U 90005F   03024.54204167  .00000227  00000-0  10101-3 0  9956
2 20441  98.3392  83.9462 0010914 285.6328  74.3652 14.31544093679001
OSCAR 19 (LUSAT)
1 20442U 90005G   03023.68467032  .00000243  00000-0  10694-3 0  9464
2 20442  98.3530  86.1005 0011314 287.9844  72.0100 14.31706489678930
JAS 1B (FUJI 2)
1 20480U 90013C   03022.96233771 -.00000003  00000-0  58872-4 0  4579
2 20480  99.0415 350.7157 0540910  64.1100 301.4731 12.83328685607102
HST
1 20580U 90037B   03024.11481481  .00000711  00000-0  45725-4 0  3069
2 20580  28.4686 203.4159 0004128   0.9738 156.7751 14.97709216498815
EUTELSAT 2-F1
1 20777U 90079B   03022.91733966 -.00000096  00000-0  10000-3 0   204
2 20777   3.4375  84.7981 0000583 212.5156 230.8178  1.00271266 25834
FENGYUN 1B
1 20788U 90081A   03024.55811281 -.00000056  00000-0 -73193-5 0  8656
2 20788  99.0249   6.9883 0015240 301.2418  58.7251 14.02139339634034
EUTELSAT 2-F2
1 21056U 91003B   03018.98974700  .00000129  00000-0  10000-3 0  6110
2 21056   2.6576  88.1748 0002556 220.7869 213.8256  1.00277988 31575
INFORMATOR 1
1 21087U 91006A   03023.87003436  .00000090  00000-0  78863-4 0  5938
2 21087  82.9440 336.4351 0034757 324.7431  35.1433 13.74923833601359
COSMOS 2123
1 21089U 91007A   03024.57038228  .00000073  00000-0  60885-4 0  4852
2 21089  82.9212 199.9203 0029962 358.9346   1.1738 13.74401583600355
ASTRA 1B
1 21139U 91015A   03023.00000000  .00000124  00000-0  10000-3 0  1588
2 21139   0.0122 319.8851 0002995  65.1991 116.0459  1.00273184 31921
METEOSAT 5 (MOP 2)
1 21140U 91015B   03021.67567715  .00000024  00000-0  10000-3 0  6856
2 21140   5.5662  70.1382 0001525 135.1810 221.4709  1.00267865 45769
NOAA 12
1 21263U 91032A   03024.13724299  .00000399  00000-0  18846-3 0  9424
2 21263  98.6235  14.2002 0013713  94.5016 265.7729 14.25063509607598
OSCAR 22 (UoSAT 5)
1 21575U 91050B   03024.20024641  .00000411  00000-0  14597-3 0  7086
2 21575  98.1383  17.6048 0006802 204.0895 155.9974 14.39136829604639
METEOR 3-5
1 21655U 91056A   03022.93224444 +.00000051 +00000-0 +10000-3 0 05265
2 21655 082.5536 057.6847 0012389 267.1675 092.8028 13.16978989549978
UARS
1 21701U 91063B   03024.08601755  .00001094  00000-0  99975-4 0  8076
2 21701  56.9797 135.1879 0005634 116.8721 243.2891 15.02805492621884
EUTELSAT 2-F3
1 21803U 91083A   03023.99834492  .00000130  00000-0  10000-3 0  5119
2 21803   2.5365  89.3767 0008952 185.1998 229.2611  1.00271200 36748
INMARSAT 2-F3
1 21814U 91084B   03022.49891601  .00000115  00000-0  10000-3 0  6058
2 21814   1.6910  56.9770 0002531 250.5721 211.5158  1.00276413 40621
INMARSAT 2-F4
1 21940U 92021B   03020.34919135 -.00000345  00000-0  10000-3 0  5656
2 21940   2.3833  17.7541 0002167 249.3231  86.9060  1.00267500 39385
EUTELSAT 2-F4
1 22028U 92041B   03023.99554399 -.00000097  00000-0  10000-3 0  3211
2 22028   1.6548  92.9483 0006003 211.6235 164.4197  1.00272238 31522
OSCAR 23 (KITSAT 1)
1 22077U 92052B   03023.21253889 -.00000037  00000-0  10000-3 0  1494
2 22077  66.0824 180.9211 0015108 280.6672  79.2647 12.86407886490912
ASTRA 1C
1 22653U 93031A   03023.00000000  .00000123  00000-0  10000-3 0  7844
2 22653   0.0122 319.8851 0002995  65.1991 116.0096  1.00273184 30626
METEOR 2-21
1 22782U 93055A   03023.86121169  .00000012  00000-0 -24703-5 0  4995
2 22782  82.5447 235.2850 0023593  59.6632 300.6842 13.83529933474533
KITSAT B
1 22825U 93061C   03023.91432158  .00000196  00000-0  93809-4 0  4690
2 22825  98.2775  54.9159 0008404 342.5186  17.5706 14.28934174486217
POSAT 1
1 22826U 93061D   03022.61836989 +.00000248 +00000-0 +11387-3 0 03100
2 22826 098.2777 054.7876 0009241 344.7678 015.3221 14.29155908486077
ITAMSAT
1 22828U 93061F   03024.49499975  .00000200  00000-0  94383-4 0  4095
2 22828  98.2744  56.8355 0009822 317.7694  42.2736 14.29500208454545
EYESAT A
1 22829U 93061G   03023.59894120  .00000305  00000-0  13485-3 0  4322
2 22829  98.2763  56.5763 0009653 321.2149  38.8330 14.29755268486346
METEOSAT 6
1 22912U 93073B   03023.98939816  .00000064  00000-0  00000+0 0  6490
2 22912   2.6174  82.5118 0000875 247.4382 158.4585  1.00274931 32045
GOES 8
1 23051U 94022A   03021.37144942 -.00000240  00000-0  00000+0 0  5709
2 23051   0.2308 105.6780 0002388 196.5117 236.1092  1.00257460 39521
ASTRA 1D
1 23331U 94070A   03021.80796854  .00000144  00000-0  00000+0 0  8059
2 23331   0.0460 213.1778 0002099  94.6320 127.9950  1.00274877 30593
RADIO ROSTO
1 23439U 94085A   03023.57288933 -.00000051  00000-0 -25590-3 0  6775
2 23439  64.8169  83.5204 0147575 120.3315 241.2220 11.27547677332663
NOAA 14
1 23455U 94089A   03024.12924585  .00000199  00000-0  13104-3 0  4967
2 23455  99.1878  42.0272 0008726 304.0298  56.0041 14.13288107415886
HIMAWARI 5 (GMS 5)
1 23522U 95011B   03023.17601888 -.00000278  00000-0  00000+0 0   681
2 23522   1.6903  83.2670 0000623  92.1178 150.2043  1.00266748 28627
HOT BIRD 1
1 23537U 95016B   03013.80550721  .00000107  00000-0  10000-3 0  5332
2 23537   0.0070 236.2796 0008090  86.9786  92.5958  1.00275871 28611
GOES 9
1 23581U 95025A   03023.50271815  .00000113  00000-0  00000+0 0  4851
2 23581   0.3407 277.1085 0009716 237.0409  13.2476  1.00032846 28101
INMARSAT 3-F1
1 23839U 96020A   03023.73585080  .00000019  00000-0  00000+0 0  8556
2 23839   0.0569  17.6484 0007259 300.1921 133.6257  1.00275324 24957
ASTRA 1F
1 23842U 96021A   03023.00000000  .00000124  00000-0  10000-3 0  5576
2 23842   0.0122 319.8851 0002995  65.1991 116.0362  1.00273184 24851
JAS 2
1 24278U 96046B   03023.87844187  .00000018  00000-0  57470-4 0  5557
2 24278  98.5303 178.5893 0350118 283.1952  73.0362 13.52870086317835
UNAMSAT
1 24305U 96052B   03022.82480179 +.00000205 +00000-0 +20364-3 0 06657
2 24305 082.9353 282.5627 0028609 279.1908 080.6001 13.73448160319813
INMARSAT 3-F2
1 24307U 96053A   03024.00415510 -.00000120  00000-0  00000+0 0   741
2 24307   0.0599  14.0277 0004713 288.3863 166.4505  1.00270937 23365
HOT BIRD 2
1 24665U 96067A   03013.80550721  .00000107  00000-0  10000-3 0  3396
2 24665   0.0284 278.7326 0008090  44.5257  92.5403  1.00273403 22904
INMARSAT 3-F3
1 24674U 96070A   03023.23724163  .00000043  00000-0  10000-3 0  9745
2 24674   0.0475 312.8437 0004623 350.6894  82.0992  1.00271748 22328
GOES 10
1 24786U 97019A   03023.24739429  .00000090  00000-0  00000+0 0  5164
2 24786   0.0740 109.2748 0003244 212.8238 114.2464  1.00283210 21079
INMARSAT 3-F4
1 24819U 97027A   03023.26740192 -.00000282  00000-0  10000-3 0  8680
2 24819   0.0474 296.7436 0003868  17.8832 209.8469  1.00270978 20747
FENGYUN 2A
1 24834U 97029A   03023.77632895 -.00000189  00000-0  00000+0 0  9474
2 24834   2.5093  88.7371 0002369 233.7830 165.5253  1.00262568 20584
HOT BIRD 3
1 24931U 97049A   03023.22766377  .00000000  00000-0  10000-3 0  4210
2 24931   0.0604 227.5595 0010036  81.3762 268.1866  1.00274291 19804
METEOSAT 7
1 24932U 97049B   03023.78770256 -.00000000  00000-0  00000+0 0  2352
2 24932   0.1530  49.8777 0001304 234.0145 122.3822  1.00274991 19766
